Regional Weather Roundup
Issued by NWS

Home | Current Version | Previous Version | Graphics & Text | Print | Product List | Glossary On
Versions: 1 2 3 4 5 6 7 8 9 10 11 12 13 14 15 16 17 18 19 20 21 22 23 24 25 26 27 28 29 30 31 32 33 34 35 36 37 38 39 40 41 42 43 44 45 46 47 48 49 50
000
ASUS43 KOAX 290202
RWRNE

WEATHER ROUNDUP FOR NEBRASKA
NATIONAL WEATHER SERVICE OMAHA NE
900 PM CDT TUE JUL 28 2015

NOTES: SATELLITE DATA IS BEING USED TO AUGMENT CLOUD COVER ABOVE
       12000 FEET.
       "FAIR" INDICATES FEW OR NO CLOUDS BELOW 12,000 FEET WITH NO
       SIGNIFICANT WEATHER AND/OR OBSTRUCTIONS TO VISIBILITY.

  * THESE STATIONS DO NOT REPORT WEATHER SUCH AS RAIN...SNOW OR FOG.

NEZ001>004-019>022-054>056-290300-
NEBRASKA PANHANDLE

CITY           SKY/WX    TMP DP  RH WIND       PRES   REMARKS
SCOTTSBLUFF    CLEAR     71  51  49 E7        30.14R
ALLIANCE       CLEAR     67  44  43 E7        30.13R
CHADRON        CLEAR     72  41  32 N5        30.11R
KIMBALL        PTCLDY    65  42  43 E6        30.19R
SIDNEY         CLEAR     70  37  29 N6        30.17R
$$

NEZ057>060-069>072-079>082-290300-
SOUTHWEST NEBRASKA

CITY           SKY/WX    TMP DP  RH WIND       PRES   REMARKS
NORTH PLATTE   CLEAR     68  52  56 NE6       30.08R
IMPERIAL       CLEAR     72  49  44 E6        30.11R
MCCOOK         CLEAR     73  54  51 NE8       30.06R
$$

NEZ005>010-023>029-035>040-094-290300-
NORTH CENTRAL NEBRASKA

CITY           SKY/WX    TMP DP  RH WIND       PRES   REMARKS
VALENTINE      CLEAR     74  43  32 NW6       30.06R
AINSWORTH      CLEAR     73  45  36 NW6       30.07R
BROKEN BOW     CLEAR     70  59  68 N6        30.05R
ORD            CLEAR     70  59  68 N5        30.01R
$$

NEZ041-046>049-061>064-073>077-083>087-290300-
SOUTH CENTRAL NEBRASKA

CITY           SKY/WX    TMP DP  RH WIND       PRES   REMARKS
GRAND ISLAND   CLEAR     71  59  65 N8        30.00R
AURORA         CLEAR     70  64  81 N3        29.99R
HASTINGS       CLEAR     73  64  73 N6        30.00R
KEARNEY *      CLEAR     73  55  53 N6        30.02R
$$

NEZ011>018-030>034-042>045-290300-
NORTHEAST NEBRASKA

CITY           SKY/WX    TMP DP  RH WIND       PRES   REMARKS
NORFOLK        CLEAR     72  60  66 NW5       29.99R
ALBION         CLEAR     71  55  57 N3        30.01R
BLAIR          MOCLDY    73  62  68 N12       29.94R
COLUMBUS *     PTCLDY    72  61  68 NW6       29.97S
FREMONT        PTCLDY    73  63  72 NW6       29.96R
TEKAMAH        CLOUDY    75  67  76 N5        29.95R
$$

NEZ050>053-065>068-078-088>093-290300-
SOUTHEAST NEBRASKA

CITY           SKY/WX    TMP DP  RH WIND       PRES   REMARKS
LINCOLN        MOCLDY    75  63  66 N9        29.95R
OMAHA EPPLEY   MOCLDY    76  67  73 N10       29.92R
BEATRICE       MOCLDY    76  66  70 N12       29.94R
FALLS CITY     MOCLDY    82  77  84 NW13G21   29.86R HX  90
NEBRASKA CITY  TSTM      75  69  80 N12G17    29.92R
$$

NEZ044-045-051>053-067-290300-
OMAHA AREA

CITY           SKY/WX    TMP DP  RH WIND       PRES   REMARKS
OMAHA EPPLEY   MOCLDY    76  67  73 N10       29.92R
BLAIR          MOCLDY    73  62  68 N12       29.94R
FREMONT        PTCLDY    73  63  72 NW6       29.96R
OFFUTT AFB     PTCLDY    78  64  63 N13G18    29.91R
WAHOO          MOCLDY    73  64  75 N6        29.95R
$$



USA.gov is the U.S. government's official web portal to all federal, state and local government web resources and services.